User: anonymous   Login
Location: Cicognara
(44.9500°N, 10.4667°E)
Time: 09:32:06
(UTC+00:00)
Language:

EO 1 Del DPAF - Orbit

View from above orbital plane
View from above orbital plane
View from above satellite
View from above satellite

Ground track
Ground track

The orbit data is extracted from the following two-line orbital elements,

1 26623U 00075E   21263.87428325  .00005307  00000-0  24778-3 0  9990
2 26623  97.9958 189.0383 0004107  90.6220 269.5484 15.20298891131650
Epoch (UTC): 20 September 2021 20:58:58
Eccentricity: 0.0004107
inclination: 97.9958°
perigee height: 502 km
apogee height: 508 km
right ascension of ascending node: 189.0383°
argument of perigee: 90.6220°
revolutions per day: 15.20298891
mean anomaly at epoch: 269.5484°
orbit number at epoch: 13165

The dashed part of the orbit path shows where the satellite is in the earth's shadow,  

DLR